Карафтит

Россия / Республика Бурятия     54°11′12″N   111°56′22″E
темп.,
°C
ветер,
м/с
пор.,
м/с
влажн.,
%
обл.,
%
осадки,
мм/ч
давл.,
гПа
погр.,
м
7 мая, пт
пт723:00−2сз2697100 1.4 1006410
02:00−3сз4996100 4.0 1004558
05:00−4сз3897100 7.3 1005385
08:00−2с3797100 14.0 1006510
11:00+1ссв478774 0.5 1008960
14:00+2с467527 0.7 10081030
17:00+3с45665 0.0 10081084
20:00−2с22854 0.1 101210
8 мая, сб
сб823:00−5сз22895 0.0 101518
02:00−6сз22909 0.0 101613
05:00−7сз22919 0.0 101612
08:000ссз23745 0.0 1012354
11:00+3ссз34595 0.0 10101195
14:00+5ссз4546100 0.1 10071990
17:00+5ссз454566 0.0 10061820
20:000сз337172 0.1 100943
9 мая, вс
вс923:00−2сз118059 0.0 101110
02:00−3сз00785 0.0 101010
05:00−3зсз11805 0.0 101110
08:00+2сз135914 0.0 1009534
11:00+5сз334797 0.1 10071829
14:00+6ссз3339100 0.2 10062160
17:00+6ссз434694 0.1 10061548
20:00+1ссз226896 0.3 100910
10 мая, пн
пн1023:00−1ссз007593 0.0 101010
02:00−1в117763 0.0 101111
05:00−2в118282 0.0 101211
08:00+2вюв2464100 0.0 1010479
11:00+5юв3555100 0.1 10091231
14:00+8вюв4539100 0.2 10072063
17:00+7в5644100 0.0 10071793
20:00+3всв3566100 0.1 100989
11 мая, вт
вт1123:00+1св2271100 0.0 101124
02:000св2276100 0.0 101222
05:00−1св2275100 0.0 101220
08:00+3св2460100 0.0 1011630
11:00+6св2348100 0.1 10091623
14:00+9св2338100 0.2 10072137
17:00+9вюв123361 0.0 10062129
20:00+5з115756 0.0 100812